EW2175 Weather Reports


time (UTC)temp
C
wind
direction
speed
KPH
gust
KPH
rain 1hr
cm
rain 24hr
cm
rain mn
cm
humidity
%
barometer
mb
20260508013016 7 50 0.0 0.0 0.00 0.51 0.00 90 1014.2
20260508011516 7 49 0.0 0.0 0.00 0.51 0.00 90 1014.1
20260508010022 8 49 0.0 0.0 0.00 0.51 0.00 89 1014.2
20260508004520 8 49 0.0 0.0 0.00 0.56 0.00 89 1014.1
20260508003014 8 49 0.0 1.6 0.00 0.56 0.00 89 1014.1
20260508001508 8 49 0.0 3.2 0.00 0.56 0.00 89 1014.2
20260508000007 8 26 0.0 1.6 0.00 0.56 0.00 89 1014.2
20260507234504 8 25 0.0 3.2 0.00 0.61 0.00 88 1014.3
20260507233002 9 11 0.0 0.0 0.00 0.61 0.00 88 1014.6
20260507231601 9 12 0.0 0.0 0.00 0.61 0.00 88 1014.7
20260507230100 9 13 0.0 0.0 0.00 0.61 0.00 88 1014.6
20260507224604 9 12 0.0 1.6 0.00 0.69 0.00 87 1014.6
20260507223059 9 11 0.0 3.2 0.00 0.69 0.00 87 1014.7
20260507221552 10 13 0.0 4.8 0.00 0.69 0.00 87 1014.7
20260507220051 10 21 0.0 3.2 0.00 0.69 0.00 87 1014.9
20260507214549 10 63 0.0 11.3 0.00 0.71 0.69 87 1014.7
20260507213051 10 26 0.0 6.4 0.00 0.71 0.69 87 1014.6
20260507211551 10 53 0.0 6.4 0.00 0.71 0.69 86 1014.6
20260507210112 10 48 0.0 9.7 0.00 0.71 0.69 86 1014.6
20260507204553 10 46 1.6 8.0 0.00 0.79 0.69 85 1014.6
20260507203046 11 51 1.6 8.0 0.00 0.79 0.69 84 1014.6
20260507201545 11 348 0.0 0.0 0.00 0.79 0.69 81 1014.5
20260507200100 11 347 0.0 0.0 0.00 0.79 0.69 80 1014.5
20260507194542 12 347 0.0 0.0 0.00 0.91 0.69 79 1014.3
20260507193104 12 347 0.0 0.0 0.00 0.91 0.69 78 1014.0
20260507191547 12 347 0.0 0.0 0.00 0.91 0.69 77 1014.0
20260507190041 13 347 0.0 3.2 0.00 0.91 0.69 75 1013.9
20260507184539 13 348 0.0 8.0 0.00 1.09 0.69 75 1013.7
20260507183041 13 2 3.2 9.7 0.00 1.09 0.69 74 1013.6
20260507181537 13 357 0.0 6.4 0.00 1.09 0.69 73 1013.7
20260507180038 14 2 1.6 8.0 0.00 1.09 0.69 73 1013.7
20260507174537 15 329 6.4 16.1 0.00 1.17 0.69 72 1013.5
20260507173036 15 327 8.0 16.1 0.00 1.17 0.69 68 1013.4
20260507171535 16 321 4.8 16.1 0.00 1.17 0.69 66 1013.3
20260507170037 17 335 8.0 16.1 0.00 1.17 0.69 63 1013.3
20260507164534 17 329 4.8 16.1 0.00 1.27 0.69 58 1013.4
20260507163037 17 336 0.0 12.9 0.00 1.27 0.69 57 1013.5
20260507161533 17 352 4.8 12.9 0.00 1.27 0.69 58 1013.5
20260507160055 18 327 4.8 9.7 0.00 1.27 0.69 57 1013.4
20260507154532 17 40 0.0 8.0 0.00 1.32 0.69 60 1013.4
20260507153131 18 40 3.2 9.7 0.00 1.32 0.69 58 1013.4
20260507151531 17 36 0.0 9.7 0.00 1.32 0.69 57 1013.4
20260507150029 18 28 1.6 9.7 0.00 1.32 0.69 59 1013.4
20260507144540 17 357 9.7 14.5 0.00 1.32 0.69 63 1013.5
20260507143025 17 343 3.2 8.0 0.00 1.32 0.69 64 1013.7
20260507141528 17 331 0.0 8.0 0.00 1.32 0.69 62 1013.6
20260507140024 17 321 3.2 9.7 0.00 1.32 0.69 65 1013.8
20260507134522 17 28 0.0 6.4 0.00 1.32 0.69 66 1013.7
20260507133018 16 314 1.6 9.7 0.00 1.32 0.69 69 1013.9
20260507131517 15 45 1.6 9.7 0.00 1.32 0.69 78 1014.0
20260507130024 13 7 1.6 9.7 0.00 1.32 0.69 82 1014.0
20260507124511 13 23 0.0 8.0 0.00 1.32 0.69 84 1014.0
20260507123008 13 7 4.8 12.9 0.00 1.32 0.69 84 1014.0
20260507121508 13 11 4.8 9.7 0.00 1.32 0.69 86 1014.0
20260507120011 13 327 1.6 8.0 0.00 1.32 0.69 87 1013.9
20260507114504 12 32 1.6 9.7 0.00 1.32 0.69 87 1014.0
20260507113004 12 329 4.8 8.0 0.00 1.32 0.69 86 1013.9
20260507111507 12 334 3.2 8.0 0.00 1.32 0.69 85 1013.9
20260507110005 13 331 3.2 8.0 0.00 1.32 0.69 82 1013.8
20260507104502 13 241 1.6 6.4 0.00 1.32 0.69 79 1013.9
20260507103059 13 296 0.0 4.8 0.00 1.32 0.69 83 1013.9
20260507101616 12 244 3.2 9.7 0.00 1.32 0.69 88 1014.0
20260507100050 12 252 0.0 9.7 0.00 1.32 0.69 91 1013.9
20260507094547 11 176 0.0 8.0 0.00 1.32 0.69 92 1014.0
20260507093046 11 217 3.2 9.7 0.00 1.32 0.69 94 1013.9
20260507091541 11 230 1.6 8.0 0.00 1.32 0.69 94 1013.8
20260507090038 11 183 3.2 9.7 0.00 1.32 0.69 95 1013.7
20260507084533 10 258 1.6 8.0 0.00 1.32 0.69 95 1013.7
20260507083033 10 261 4.8 9.7 0.00 1.32 0.69 96 1013.6
20260507081536 10 263 0.0 11.3 0.00 1.32 0.69 96 1013.5
20260507080027 10 229 1.6 6.4 0.00 1.32 0.69 96 1013.4
20260507074525 10 215 1.6 8.0 0.00 1.32 0.69 96 1013.3
20260507073021 10 223 1.6 11.3 0.03 1.32 0.69 96 1013.2
20260507071521 10 197 0.0 8.0 0.03 1.32 0.69 96 1013.2
20260507070017 9 184 3.2 8.0 0.03 1.32 0.69 96 1013.0
20260507064516 9 229 4.8 11.3 0.03 1.32 0.69 96 1013.0
20260507063009 9 228 1.6 11.3 0.03 1.30 0.66 96 1012.9
20260507061508 9 182 3.2 9.7 0.05 1.30 0.66 96 1012.8
20260507060005 9 201 1.6 11.3 0.05 1.30 0.66 96 1012.7
20260507054503 9 241 1.6 11.3 0.05 1.30 0.66 95 1012.6
20260507053002 9 228 3.2 8.0 0.05 1.27 0.64 95 1012.4
20260507051600 9 220 0.0 6.4 0.05 1.27 0.61 95 1012.3
20260507044556 9 194 1.6 9.7 0.08 1.24 0.61 95 1011.9
20260507043100 9 206 4.8 11.3 0.10 1.22 0.58 95 1011.7
20260507041602 9 246 4.8 11.3 0.13 1.19 0.56 95 1011.6
20260507040056 9 207 3.2 9.7 0.15 1.17 0.53 95 1011.5
20260507034555 9 233 8.0 17.7 0.15 1.17 0.51 94 1011.3
20260507033050 9 246 8.0 17.7 0.15 1.12 0.48 95 1011.2
20260507031546 9 175 4.8 16.1 0.15 1.09 0.43 94 1011.0
20260507030044 9 204 8.0 17.7 0.13 1.04 0.41 94 1011.0
20260507024542 9 229 9.7 20.9 0.13 0.99 0.36 94 1010.9
20260507023039 9 177 8.0 16.1 0.13 0.99 0.33 94 1010.9
20260507021538 9 196 6.4 19.3 0.13 0.94 0.30 94 1010.7
20260507020036 9 182 8.0 20.9 0.10 0.91 0.28 94 1010.6
20260507014548 9 194 8.0 16.1 0.08 0.89 0.23 93 1010.5